Time,TemperatureF,DewpointF,PressureIn,WindDirection,WindDirectionDegrees,WindSpeedMPH,WindSpeedGustMPH,Humidity,HourlyPrecipIn,Conditions,Clouds,dailyrainin,SoftwareType,DateUTC
2013-03-03 01:00:00,27.0,16.0,29.80,East,95,2.0,12.0,64,-99.99,,,-99.99,,2013-03-03 06:00:00,
2013-03-03 01:22:00,27.0,16.0,29.80,East,95,2.0,12.0,64,-99.99,,,-99.99,,2013-03-03 06:22:00,
2013-03-03 01:32:00,27.0,16.0,29.80,East,95,2.0,12.0,64,-99.99,,,-99.99,,2013-03-03 06:32:00,
2013-03-03 01:42:00,27.0,16.0,29.80,East,95,2.0,12.0,64,-99.99,,,-99.99,,2013-03-03 06:42:00,
2013-03-03 01:52:00,27.0,16.0,29.80,East,95,2.0,12.0,64,-99.99,,,-99.99,,2013-03-03 06:52:00,
2013-03-03 02:00:00,27.0,16.0,29.80,ESE,114,2.0,9.0,64,-99.99,,,-99.99,,2013-03-03 07:00:00,
2013-03-03 02:22:00,27.0,16.0,29.80,ESE,114,2.0,9.0,64,-99.99,,,-99.99,,2013-03-03 07:22:00,
2013-03-03 02:32:00,27.0,16.0,29.80,ESE,114,2.0,9.0,64,-99.99,,,-99.99,,2013-03-03 07:32:00,
2013-03-03 02:42:00,27.0,16.0,29.80,ESE,114,2.0,9.0,64,-99.99,,,-99.99,,2013-03-03 07:42:00,
2013-03-03 02:52:00,27.0,16.0,29.80,ESE,114,2.0,9.0,64,-99.99,,,-99.99,,2013-03-03 07:52:00,
2013-03-03 03:00:00,27.0,15.0,29.77,East,84,4.0,12.0,63,-99.99,,,-99.99,,2013-03-03 08:00:00,
2013-03-03 03:21:00,27.0,15.0,29.77,East,84,4.0,12.0,63,-99.99,,,-99.99,,2013-03-03 08:21:00,
2013-03-03 03:32:00,27.0,15.0,29.77,East,84,4.0,12.0,63,-99.99,,,-99.99,,2013-03-03 08:32:00,
2013-03-03 03:42:00,27.0,15.0,29.77,East,84,4.0,12.0,63,-99.99,,,-99.99,,2013-03-03 08:42:00,
2013-03-03 03:54:00,27.0,15.0,29.77,East,84,4.0,12.0,63,-99.99,,,-99.99,,2013-03-03 08:54:00,
2013-03-03 04:00:00,26.0,14.0,29.77,WNW,290,0.0,11.0,62,-99.99,,,-99.99,,2013-03-03 09:00:00,
2013-03-03 04:21:00,26.0,14.0,29.77,WNW,290,0.0,11.0,62,-99.99,,,-99.99,,2013-03-03 09:21:00,
2013-03-03 04:32:00,26.0,14.0,29.77,WNW,290,0.0,11.0,62,-99.99,,,-99.99,,2013-03-03 09:32:00,
2013-03-03 04:42:00,26.0,14.0,29.77,WNW,290,0.0,11.0,62,-99.99,,,-99.99,,2013-03-03 09:42:00,
2013-03-03 04:52:00,26.0,14.0,29.77,WNW,290,0.0,11.0,62,-99.99,,,-99.99,,2013-03-03 09:52:00,
2013-03-03 05:00:00,26.0,14.0,29.77,East,88,3.0,10.0,63,-99.99,,,-99.99,,2013-03-03 10:00:00,
2013-03-03 05:22:00,26.0,14.0,29.77,East,88,3.0,10.0,63,-99.99,,,-99.99,,2013-03-03 10:22:00,
2013-03-03 05:32:00,26.0,14.0,29.77,East,88,3.0,10.0,63,-99.99,,,-99.99,,2013-03-03 10:32:00,
2013-03-03 05:42:00,26.0,14.0,29.77,East,88,3.0,10.0,63,-99.99,,,-99.99,,2013-03-03 10:42:00,
2013-03-03 05:52:00,26.0,14.0,29.77,East,88,3.0,10.0,63,-99.99,,,-99.99,,2013-03-03 10:52:00,
2013-03-03 06:00:00,26.0,15.0,29.80,SE,129,4.0,7.0,67,-99.99,,,-99.99,,2013-03-03 11:00:00,
2013-03-03 06:22:00,26.0,15.0,29.80,SE,129,4.0,7.0,67,-99.99,,,-99.99,,2013-03-03 11:22:00,
2013-03-03 06:32:00,26.0,15.0,29.80,SE,129,4.0,7.0,67,-99.99,,,-99.99,,2013-03-03 11:32:00,
2013-03-03 06:42:00,26.0,15.0,29.80,SE,129,4.0,7.0,67,-99.99,,,-99.99,,2013-03-03 11:42:00,
2013-03-03 06:53:00,26.0,15.0,29.80,SE,129,4.0,7.0,67,-99.99,,,-99.99,,2013-03-03 11:53:00,
2013-03-03 07:00:00,26.0,15.0,29.80,ESE,108,5.0,8.0,64,-99.99,,,-99.99,,2013-03-03 12:00:00,
2013-03-03 07:22:00,26.0,15.0,29.80,ESE,108,5.0,8.0,64,-99.99,,,-99.99,,2013-03-03 12:22:00,
2013-03-03 07:32:00,26.0,15.0,29.80,ESE,108,5.0,8.0,64,-99.99,,,-99.99,,2013-03-03 12:32:00,
2013-03-03 07:43:00,26.0,15.0,29.80,ESE,108,5.0,8.0,64,-99.99,,,-99.99,,2013-03-03 12:43:00,
2013-03-03 07:53:00,26.0,15.0,29.80,ESE,108,5.0,8.0,64,-99.99,,,-99.99,,2013-03-03 12:53:00,
2013-03-03 08:00:00,27.0,16.0,29.80,East,85,0.0,11.0,65,-99.99,,,-99.99,,2013-03-03 13:00:00,
2013-03-03 08:32:00,27.0,16.0,29.80,East,85,0.0,11.0,65,-99.99,,,-99.99,,2013-03-03 13:32:00,
2013-03-03 08:42:00,27.0,16.0,29.80,East,85,0.0,11.0,65,-99.99,,,-99.99,,2013-03-03 13:42:00,
2013-03-03 08:52:00,27.0,16.0,29.80,East,85,0.0,11.0,65,-99.99,,,-99.99,,2013-03-03 13:52:00,
2013-03-03 09:00:00,29.0,14.0,29.77,NE,39,5.0,13.0,56,-99.99,,,-99.99,,2013-03-03 14:00:00,
2013-03-03 09:22:00,29.0,14.0,29.77,NE,39,5.0,13.0,56,-99.99,,,-99.99,,2013-03-03 14:22:00,
2013-03-03 09:32:00,29.0,14.0,29.77,NE,39,5.0,13.0,56,-99.99,,,-99.99,,2013-03-03 14:32:00,
2013-03-03 09:42:00,29.0,14.0,29.77,NE,39,5.0,13.0,56,-99.99,,,-99.99,,2013-03-03 14:42:00,
2013-03-03 09:52:00,29.0,14.0,29.77,NE,39,5.0,13.0,56,-99.99,,,-99.99,,2013-03-03 14:52:00,
2013-03-03 10:00:00,30.0,13.0,29.77,WSW,241,3.0,17.0,49,-99.99,,,-99.99,,2013-03-03 15:00:00,
2013-03-03 10:32:00,30.0,13.0,29.77,WSW,241,3.0,17.0,49,-99.99,,,-99.99,,2013-03-03 15:32:00,
2013-03-03 10:42:00,30.0,13.0,29.77,WSW,241,3.0,17.0,49,-99.99,,,-99.99,,2013-03-03 15:42:00,
2013-03-03 10:52:00,30.0,13.0,29.77,WSW,241,3.0,17.0,49,-99.99,,,-99.99,,2013-03-03 15:52:00,
2013-03-03 11:00:00,30.0,14.0,29.77,East,80,8.0,18.0,52,-99.99,,,-99.99,,2013-03-03 16:00:00,
2013-03-03 11:22:00,30.0,14.0,29.77,East,80,8.0,18.0,52,-99.99,,,-99.99,,2013-03-03 16:22:00,
2013-03-03 11:32:00,30.0,14.0,29.77,East,80,8.0,18.0,52,-99.99,,,-99.99,,2013-03-03 16:32:00,
2013-03-03 11:42:00,30.0,14.0,29.77,East,80,8.0,18.0,52,-99.99,,,-99.99,,2013-03-03 16:42:00,
2013-03-03 11:52:00,30.0,14.0,29.77,East,80,8.0,18.0,52,-99.99,,,-99.99,,2013-03-03 16:52:00,
2013-03-03 12:00:00,31.0,16.0,29.77,ENE,60,7.0,15.0,54,-99.99,,,-99.99,,2013-03-03 17:00:00,
2013-03-03 12:22:00,31.0,16.0,29.77,ENE,60,7.0,15.0,54,-99.99,,,-99.99,,2013-03-03 17:22:00,
2013-03-03 12:32:00,31.0,16.0,29.77,ENE,60,7.0,15.0,54,-99.99,,,-99.99,,2013-03-03 17:32:00,
2013-03-03 12:42:00,31.0,16.0,29.77,ENE,60,7.0,15.0,54,-99.99,,,-99.99,,2013-03-03 17:42:00,
2013-03-03 12:52:00,31.0,16.0,29.77,ENE,60,7.0,15.0,54,-99.99,,,-99.99,,2013-03-03 17:52:00,
2013-03-03 13:00:00,32.0,17.0,29.74,East,96,7.0,17.0,55,-99.99,,,-99.99,,2013-03-03 18:00:00,
2013-03-03 13:32:00,32.0,17.0,29.74,East,96,7.0,17.0,55,-99.99,,,-99.99,,2013-03-03 18:32:00,
2013-03-03 13:42:00,32.0,17.0,29.74,East,96,7.0,17.0,55,-99.99,,,-99.99,,2013-03-03 18:42:00,
2013-03-03 13:52:00,32.0,17.0,29.74,East,96,7.0,17.0,55,-99.99,,,-99.99,,2013-03-03 18:52:00,
2013-03-03 14:00:00,33.0,17.0,29.74,WSW,249,9.0,13.0,51,-99.99,,,-99.99,,2013-03-03 19:00:00,
2013-03-03 14:32:00,33.0,17.0,29.74,WSW,249,9.0,13.0,51,-99.99,,,-99.99,,2013-03-03 19:32:00,
2013-03-03 14:42:00,33.0,17.0,29.74,WSW,249,9.0,13.0,51,-99.99,,,-99.99,,2013-03-03 19:42:00,
2013-03-03 14:52:00,33.0,17.0,29.74,WSW,249,9.0,13.0,51,-99.99,,,-99.99,,2013-03-03 19:52:00,
2013-03-03 15:00:00,34.0,16.0,29.74,East,85,4.0,17.0,47,-99.99,,,-99.99,,2013-03-03 20:00:00,
2013-03-03 15:22:00,34.0,16.0,29.74,East,85,4.0,17.0,47,-99.99,,,-99.99,,2013-03-03 20:22:00,
2013-03-03 15:32:00,34.0,16.0,29.74,East,85,4.0,17.0,47,-99.99,,,-99.99,,2013-03-03 20:32:00,
2013-03-03 15:43:00,34.0,16.0,29.74,East,85,4.0,17.0,47,-99.99,,,-99.99,,2013-03-03 20:43:00,
2013-03-03 15:53:00,34.0,16.0,29.74,East,85,4.0,17.0,47,-99.99,,,-99.99,,2013-03-03 20:53:00,
2013-03-03 16:00:00,33.0,16.0,29.74,SSW,198,4.0,15.0,49,-99.99,,,-99.99,,2013-03-03 21:00:00,
2013-03-03 16:22:00,33.0,16.0,29.74,SSW,198,4.0,15.0,49,-99.99,,,-99.99,,2013-03-03 21:22:00,
2013-03-03 16:32:00,33.0,16.0,29.74,SSW,198,4.0,15.0,49,-99.99,,,-99.99,,2013-03-03 21:32:00,
2013-03-03 16:42:00,33.0,16.0,29.74,SSW,198,4.0,15.0,49,-99.99,,,-99.99,,2013-03-03 21:42:00,
2013-03-03 16:52:00,33.0,16.0,29.74,SSW,198,4.0,15.0,49,-99.99,,,-99.99,,2013-03-03 21:52:00,
2013-03-03 17:00:00,32.0,15.0,29.74,East,80,1.0,20.0,50,-99.99,,,-99.99,,2013-03-03 22:00:00,
2013-03-03 17:22:00,32.0,15.0,29.74,East,80,1.0,20.0,50,-99.99,,,-99.99,,2013-03-03 22:22:00,
2013-03-03 17:32:00,32.0,15.0,29.74,East,80,1.0,20.0,50,-99.99,,,-99.99,,2013-03-03 22:32:00,
2013-03-03 17:42:00,32.0,15.0,29.74,East,80,1.0,20.0,50,-99.99,,,-99.99,,2013-03-03 22:42:00,
2013-03-03 17:52:00,32.0,15.0,29.74,East,80,1.0,20.0,50,-99.99,,,-99.99,,2013-03-03 22:52:00,
2013-03-03 19:00:00,30.0,17.0,29.80,South,182,5.0,15.0,57,-99.99,,,-99.99,,2013-03-04 00:00:00,
2013-03-03 19:32:00,30.0,17.0,29.80,South,182,5.0,15.0,57,-99.99,,,-99.99,,2013-03-04 00:32:00,
2013-03-03 19:42:00,30.0,17.0,29.80,South,182,5.0,15.0,57,-99.99,,,-99.99,,2013-03-04 00:42:00,
2013-03-03 19:52:00,30.0,17.0,29.80,South,182,5.0,15.0,57,-99.99,,,-99.99,,2013-03-04 00:52:00,
2013-03-03 20:00:00,30.0,16.0,29.80,SE,146,2.0,13.0,58,-99.99,,,-99.99,,2013-03-04 01:00:00,
2013-03-03 20:22:00,30.0,16.0,29.80,SE,146,2.0,13.0,58,-99.99,,,-99.99,,2013-03-04 01:22:00,
2013-03-03 20:32:00,30.0,16.0,29.80,SE,146,2.0,13.0,58,-99.99,,,-99.99,,2013-03-04 01:32:00,
2013-03-03 20:42:00,30.0,16.0,29.80,SE,146,2.0,13.0,58,-99.99,,,-99.99,,2013-03-04 01:42:00,
2013-03-03 20:52:00,30.0,16.0,29.80,SE,146,2.0,13.0,58,-99.99,,,-99.99,,2013-03-04 01:52:00,
2013-03-03 21:00:00,29.0,16.0,29.83,ESE,109,2.0,10.0,59,-99.99,,,-99.99,,2013-03-04 02:00:00,
2013-03-03 21:22:00,29.0,16.0,29.83,ESE,109,2.0,10.0,59,-99.99,,,-99.99,,2013-03-04 02:22:00,
2013-03-03 21:32:00,29.0,16.0,29.83,ESE,109,2.0,10.0,59,-99.99,,,-99.99,,2013-03-04 02:32:00,
2013-03-03 21:42:00,29.0,16.0,29.83,ESE,109,2.0,10.0,59,-99.99,,,-99.99,,2013-03-04 02:42:00,
2013-03-03 21:53:00,29.0,16.0,29.83,ESE,109,2.0,10.0,59,-99.99,,,-99.99,,2013-03-04 02:53:00,
2013-03-03 22:00:00,28.0,14.0,29.80,NE,41,2.0,15.0,57,-99.99,,,-99.99,,2013-03-04 03:00:00,
2013-03-03 22:22:00,28.0,14.0,29.80,NE,41,2.0,15.0,57,-99.99,,,-99.99,,2013-03-04 03:22:00,
2013-03-03 22:32:00,28.0,14.0,29.80,NE,41,2.0,15.0,57,-99.99,,,-99.99,,2013-03-04 03:32:00,
2013-03-03 22:42:00,28.0,14.0,29.80,NE,41,2.0,15.0,57,-99.99,,,-99.99,,2013-03-04 03:42:00,
2013-03-03 22:53:00,28.0,14.0,29.80,NE,41,2.0,15.0,57,-99.99,,,-99.99,,2013-03-04 03:53:00,
2013-03-03 23:00:00,27.0,12.0,29.83,SE,139,6.0,15.0,56,-99.99,,,-99.99,,2013-03-04 04:00:00,
2013-03-03 23:22:00,27.0,12.0,29.83,SE,139,6.0,15.0,56,-99.99,,,-99.99,,2013-03-04 04:22:00,
2013-03-03 23:32:00,27.0,12.0,29.83,SE,139,6.0,15.0,56,-99.99,,,-99.99,,2013-03-04 04:32:00,
2013-03-03 23:42:00,27.0,12.0,29.83,SE,139,6.0,15.0,56,-99.99,,,-99.99,,2013-03-04 04:42:00,
2013-03-03 23:52:00,27.0,12.0,29.83,SE,139,6.0,15.0,56,-99.99,,,-99.99,,2013-03-04 04:52:00,